Regional Weather Roundup
Issued by NWS Bismarck, ND

Home | Current Version | Previous Version | Text Only | Print | Product List | Glossary On
Versions: 1 2 3 4 5 6 7 8 9 10 11 12 13 14 15 16 17 18 19 20 21 22 23 24 25 26 27 28 29 30 31 32 33 34 35 36 37 38 39 40 41 42 43 44 45 46 47 48 49 50
000
ASUS43 KBIS 201110
RWRBIS

NWR BROADCAST TEXT
NATIONAL WEATHER SERVICE BISMARCK ND
600 AM CDT FRI APR 20 2018

NOTE: "FAIR" INDICATES FEW OR NO CLOUDS BELOW 12,000 FEET WITH NO
SIGNIFICANT WEATHER AND/OR OBSTRUCTIONS TO VISIBILITY.


CITY           SKY/WX    TMP DP  RH WIND       PRES   REMARKS
WILLISTON      MOCLDY    32  29  88 N6        30.23F
MINOT          CLOUDY    32  28  85 CALM      30.29S
MINOT AFB      CLEAR     30  30 100 SE5       30.28F FOG
BISMARCK       CLEAR     29  22  75 E6        30.32F
DICKINSON      PTCLDY    31  25  78 SE14      30.20S
GARRISON         N/A     31  27  85 E5        30.29F
HETTINGER ARPT PTCLDY    31  25  78 SE10      30.21S
JAMESTOWN      PTCLDY    30  25  81 SE6       30.36S
CARRINGTON     FAIR      32  28  86 SE5       30.38S
HAZEN          FAIR      34  25  69 MISG      30.30S
LINTON           N/A    N/A N/A N/A SE13      30.33F
MANDAN         FAIR      30  27  86 E8        30.31S
OAKES            N/A     27  28 100 SE6       30.40S WCI  20
RUGBY          FAIR      34  30  86 SE7       30.33S
STANLEY          N/A     32  32 100 SE5       30.28F
TIOGA          FAIR      30  30 100 NE5       30.26F FOG
WATFORD CITY   FAIR      32  32 100 CALM      30.23S
$$

CITY           SKY/WX    TMP DP  RH WIND       PRES   REMARKS
GRAND FORKS    MOCLDY    32  30  92 SE5       30.38F
GRAND FORKS AF FAIR      36  29  77 CALM      30.38S
DEVILS LAKE    FAIR      32  29  88 S5        30.37R
FARGO          FAIR      32  29  88 S3        30.41S
CANDO          FAIR      32  32 100 E5        30.37S FOG
CAVALIER         N/A     32  32 100 SW9G17    30.37R
GRAFTON        FAIR      32  30  93 S5        30.40S
GWINNER          N/A     32  28  86 SW6       30.40S
LANGDON        FAIR      34  34 100 S6        30.36R
ROLLA          FAIR      32  32 100 S5        30.34S
WALHALLA       FAIR      34  34 100 CALM      30.36S
$$

CITY           SKY/WX    TMP DP  RH WIND       PRES   REMARKS
ABERDEEN       PTCLDY    26  22  84 SE6       30.39S WCI  19
MOBRIDGE       PTCLDY    33  27  78 SE9       30.27F
BUFFALO          N/A     35  28  75 E12       30.08S
RAPID CITY     CLOUDY    36  28  73 SE12      30.14F
GLASGOW        PTCLDY    39  33  79 E13       30.14S
SIDNEY         MOCLDY    34  29  82 CALM      30.20F
WOLF POINT     PTCLDY    35  32  88 E7        30.18S FOG
GLENDIVE       PTCLDY    35  29  78 E7        30.17S
MILES CITY     PTCLDY    39  33  79 E7        30.10S
BAKER          PTCLDY    33  31  92 E15       30.14S
$$

CITY           SKY/WX    TMP DP  RH WIND       PRES   REMARKS
BILLINGS       PTCLDY    37  32  82 NW5       30.05R
GREAT FALLS    CLEAR     31  27  85 W8        30.10R
REGINA         CLEAR     34  28  80 SE13G20   30.22F
ESTEVAN        PTCLDY    30  28  93 E8        30.26S
$$




USA.gov is the U.S. government's official web portal to all federal, state and local government web resources and services.